Tracking 18624 objects as of 26-April-2017
HD Live streaming from Space Station
objects crossing your sky now

YAOGAN 14

Track YAOGAN 14 now!
10-day predictions
YAOGAN 14 is classified as:


NORAD ID: 38257
Int'l Code: 2012-021A
Perigee: 477.7 km
Apogee: 487.2 km
Inclination: 97.3 °
Period: 94.1 minutes
Semi major axis: 6853 km
RCS: 5.8167 m2 (large)
Launch date: May 10, 2012
Source: People's Republic of China (PRC)
Launch site: Taiyaun Space Center, China (TSC)

YAOGAN 14 (Remote Sensing Satellite 14) is an optical reconnaisance satellite.
Your satellite tracking list
Your tracking list is empty





NASA's NSSDC Master Catalog

Two Line Element Set (TLE):
1 38257U 12021A   17114.86620005 +.00004187 +00000-0 +14597-3 0  9991
2 38257 097.2961 245.2739 0006927 133.6663 343.5138 15.30162043276901
Source of the keplerian elements: AFSPC